Location: San Antonio de Areco
(34.2500°S, 59.4670°W)
Time: 16:56:17
(UTC-03:00)

ISS - Visible Passes

Search period start: 23 October 2014 00:00
Search period end: 02 November 2014 00:00
Orbit: 412 x 416 km, 51.6° (Epoch: 23 October)

Date Brightness Start Highest point End Pass type
(mag) Time Alt. Az. Time Alt. Az. Time Alt. Az.
29 Oct -0.2 05:03:18 10° S 05:05:08 14° SSE 05:06:58 10° ESE visible
31 Oct -1.1 05:00:09 10° SSW 05:03:10 29° SE 05:06:10 10° E visible
01 Nov -0.3 04:11:02 10° SSW 04:13:29 18° SSE 04:15:56 10° ESE visible
01 Nov -1.3 20:49:43 10° NNW 20:50:42 17° N 20:50:42 17° N visible
